Weather History for KCKC - November, 2013

Change the Weather History Date:

Friday, November 15, 2013

  Actual Average Record
Temperature  
Mean Temperature 34 °F -  
Max Temperature 41 °F 31 °F 55 °F (2001)
Min Temperature 28 °F 20 °F 1 °F (2002)
Degree Days  
Heating Degree Days 30    
Moisture  
Dew Point 28 °F    
Average Humidity 81    
Maximum Humidity 93    
Minimum Humidity 57    
Precipitation  
Precipitation 0.02 in - - ()
Sea Level Pressure  
Sea Level Pressure 29.70 in    
Wind  
Wind Speed 3 mph (SSW)    
Max Wind Speed 9 mph    
Max Gust Speed -    
Visibility 6 miles    
Events Fog , Snow    
Averages and records for this station are not official NWS values.
T = Trace of Precipitation, MM = Missing Value Source: NWS Daily Summary

Daily Weather History Graph

Daily Weather History Graph

Search for Another Location

Airport or City:

Trip Planner

Search our weather history database for the weather conditions in past years. The results will help you decide how hot, cold, wet, or windy it might be!

Date:

Astronomy

Nov. 15, 2013 Rise Set
Actual Time 7:07 AM CST 4:24 PM CST
Civil Twilight 6:33 AM CST 4:57 PM CST
Nautical Twilight 5:56 AM CST 5:35 PM CST
Astronomical Twilight 5:19 AM CST 6:11 PM CST
Moon 3:27 PM CST (11/15) 4:56 AM CST (11/15)
Length of Visible Light 10h 23m
Length of Day
9h 16m
Waxing Gibbous, 96% of the Moon is Illuminated
Nov 15
Waxing Gibbous
Nov 17
Full
Nov 25
Last Quarter
Dec 2
New
Dec 9
First Quarter

Hourly Weather History & Observations

Time (CST) Temp. Windchill Dew Point Humidity Pressure Visibility Wind Dir Wind Speed Gust Speed Precip Events Conditions
12:14 AM 28.4 °F 24.6 °F 24.8 °F 86% 29.71 in 10.0 mi South 3.5 mph - N/A   Overcast
12:33 AM 30.2 °F - 24.8 °F 80% 29.70 in 10.0 mi Calm Calm - N/A   Overcast
12:53 AM 30.2 °F - 24.8 °F 80% 29.69 in 10.0 mi Calm Calm - N/A   Overcast
1:13 AM 30.2 °F - 24.8 °F 80% 29.69 in 10.0 mi Calm Calm - N/A   Overcast
1:34 AM 30.2 °F 26.7 °F 24.8 °F 80% 29.70 in 10.0 mi SSW 3.5 mph - N/A   Overcast
1:54 AM 30.2 °F 26.7 °F 24.8 °F 80% 29.69 in 10.0 mi South 3.5 mph - N/A   Overcast
2:14 AM 30.2 °F 26.7 °F 24.8 °F 80% 29.69 in 10.0 mi SSW 3.5 mph - N/A   Overcast
2:33 AM 32.0 °F 28.7 °F 26.6 °F 80% 29.70 in 5.0 mi SSW 3.5 mph - N/A Snow Light Snow
2:53 AM 30.2 °F 26.7 °F 26.6 °F 86% 29.70 in 5.0 mi SSW 3.5 mph - N/A Snow Light Snow
3:13 AM 30.2 °F - 26.6 °F 86% 29.69 in 7.0 mi Calm Calm - N/A Snow Light Snow
3:33 AM 30.2 °F 26.7 °F 26.6 °F 86% 29.68 in 10.0 mi South 3.5 mph - N/A   Overcast
3:53 AM 32.0 °F 27.5 °F 26.6 °F 80% 29.68 in 10.0 mi SSW 4.6 mph - N/A   Overcast
4:14 AM 32.0 °F 27.5 °F 28.4 °F 87% 29.69 in 1.5 mi SSW 4.6 mph - N/A Snow Light Snow
4:34 AM 32.0 °F - 28.4 °F 87% 29.69 in 3.0 mi Calm Calm - N/A Snow Light Snow
4:54 AM 32.0 °F 28.7 °F 28.4 °F 87% 29.70 in 7.0 mi SSW 3.5 mph - 0.02 in   Overcast
5:14 AM 32.0 °F 28.7 °F 28.4 °F 87% 29.70 in 10.0 mi SW 3.5 mph - N/A   Overcast
5:34 AM 32.0 °F - 28.4 °F 87% 29.69 in 10.0 mi Calm Calm - N/A   Overcast
5:54 AM 32.0 °F - 28.4 °F 87% 29.70 in 10.0 mi Calm Calm - N/A   Overcast
6:13 AM 32.0 °F - 28.4 °F 87% 29.70 in 4.0 mi Calm Calm - N/A   Overcast
6:33 AM 32.0 °F - 28.4 °F 87% 29.70 in 2.0 mi Calm Calm - N/A   Overcast
6:54 AM 32.0 °F - 28.4 °F 87% 29.70 in 3.0 mi Calm Calm - N/A   Overcast
7:13 AM 32.0 °F 28.7 °F 28.4 °F 87% 29.71 in 3.0 mi WSW 3.5 mph - N/A   Overcast
7:33 AM 32.0 °F 27.5 °F 28.4 °F 87% 29.72 in 2.0 mi West 4.6 mph - N/A   Overcast
7:54 AM 32.0 °F 28.7 °F 28.4 °F 87% 29.72 in 4.0 mi West 3.5 mph - N/A   Overcast
8:14 AM 33.8 °F 30.8 °F 28.4 °F 81% 29.72 in 7.0 mi WSW 3.5 mph - N/A   Overcast
8:33 AM 33.8 °F 30.8 °F 28.4 °F 81% 29.73 in 7.0 mi SW 3.5 mph - N/A   Scattered Clouds
8:53 AM 33.8 °F - 28.4 °F 81% 29.73 in 10.0 mi Calm Calm - N/A   Scattered Clouds
9:14 AM 33.8 °F 29.6 °F 28.4 °F 81% 29.73 in 10.0 mi WSW 4.6 mph - N/A   Overcast
9:33 AM 35.6 °F 31.7 °F 28.4 °F 75% 29.73 in 10.0 mi West 4.6 mph - N/A   Mostly Cloudy
9:53 AM 35.6 °F 31.7 °F 26.6 °F 70% 29.73 in 10.0 mi WSW 4.6 mph - N/A   Mostly Cloudy
10:14 AM 35.6 °F 30.7 °F 26.6 °F 70% 29.73 in 10.0 mi West 5.8 mph - N/A   Overcast
10:33 AM 35.6 °F 29.2 °F 26.6 °F 70% 29.74 in 10.0 mi West 8.1 mph - N/A   Overcast
10:54 AM 35.6 °F 30.7 °F 26.6 °F 70% 29.74 in 10.0 mi West 5.8 mph - N/A   Mostly Cloudy
11:13 AM 37.4 °F 34.9 °F 26.6 °F 65% 29.73 in 10.0 mi SW 3.5 mph - N/A   Mostly Cloudy
11:34 AM 39.2 °F 35.9 °F 26.6 °F 61% 29.72 in 10.0 mi SSW 4.6 mph - N/A   Clear
11:54 AM 39.2 °F 35.0 °F 26.6 °F 61% 29.73 in 10.0 mi SSW 5.8 mph - N/A   Scattered Clouds
12:13 PM 39.2 °F 33.6 °F 26.6 °F 61% 29.73 in 10.0 mi SSW 8.1 mph - N/A   Mostly Cloudy
12:33 PM 41.0 °F 37.1 °F 26.6 °F 57% 29.72 in 10.0 mi SSW 5.8 mph - N/A   Scattered Clouds
12:54 PM 41.0 °F 38.0 °F 26.6 °F 57% 29.71 in 10.0 mi SW 4.6 mph - N/A   Clear
1:14 PM 41.0 °F 37.1 °F 26.6 °F 57% 29.71 in 10.0 mi SSW 5.8 mph - N/A   Clear
1:33 PM 41.0 °F 35.8 °F 28.4 °F 61% 29.70 in 10.0 mi South 8.1 mph - N/A   Clear
1:53 PM 39.2 °F 34.2 °F 30.2 °F 70% 29.70 in 10.0 mi South 6.9 mph - N/A   Clear
2:14 PM 41.0 °F 38.0 °F 30.2 °F 65% 29.70 in 10.0 mi South 4.6 mph - N/A   Clear
2:34 PM 37.4 °F 31.4 °F 30.2 °F 75% 29.70 in 10.0 mi SSE 8.1 mph - N/A   Clear
2:53 PM 35.6 °F 28.6 °F 30.2 °F 81% 29.70 in 7.0 mi South 9.2 mph - N/A   Mostly Cloudy
3:13 PM 37.4 °F 32.8 °F 30.2 °F 75% 29.70 in 10.0 mi South 5.8 mph - N/A   Mostly Cloudy
3:34 PM 35.6 °F 29.2 °F 30.2 °F 81% 29.70 in 10.0 mi South 8.1 mph - N/A   Scattered Clouds
3:54 PM 33.8 °F 27.0 °F 30.2 °F 87% 29.71 in 5.0 mi South 8.1 mph - N/A   Mostly Cloudy
4:13 PM 33.8 °F 29.6 °F 30.2 °F 87% 29.70 in 5.0 mi South 4.6 mph - N/A   Overcast
4:33 PM 33.8 °F - 28.4 °F 81% 29.70 in 4.0 mi Calm Calm - N/A   Scattered Clouds
4:54 PM 30.2 °F 26.7 °F 28.4 °F 93% 29.69 in 3.0 mi South 3.5 mph - N/A   Clear
5:13 PM 30.2 °F 26.7 °F 28.4 °F 93% 29.69 in 5.0 mi SSW 3.5 mph - N/A   Clear
5:34 PM 30.2 °F 25.4 °F 26.6 °F 86% 29.69 in 4.0 mi SSW 4.6 mph - N/A   Clear
5:53 PM 30.2 °F 26.7 °F 28.4 °F 93% 29.69 in 5.0 mi South 3.5 mph - N/A   Clear
6:14 PM 30.2 °F 25.4 °F 26.6 °F 86% 29.69 in 4.0 mi South 4.6 mph - N/A   Clear
6:33 PM 32.0 °F - 28.4 °F 87% 29.69 in 5.0 mi Calm Calm - N/A   Scattered Clouds
6:54 PM 33.8 °F 30.8 °F 30.2 °F 87% 29.69 in 1.0 mi South 3.5 mph - N/A   Overcast
7:13 PM 33.8 °F - 30.2 °F 87% 29.69 in 0.2 mi Calm Calm - N/A Fog Fog
7:34 PM 30.2 °F - 28.4 °F 93% 29.69 in 0.2 mi Calm Calm - N/A Fog Light Freezing Fog
7:54 PM 32.0 °F - 28.4 °F 87% 29.70 in 3.0 mi Calm Calm - N/A   Scattered Clouds
8:13 PM 30.2 °F - 28.4 °F 93% 29.69 in 1.8 mi Calm Calm - N/A   Overcast
8:34 PM 33.8 °F - 30.2 °F 87% 29.69 in 0.2 mi Calm Calm - N/A Fog Fog
8:54 PM 33.8 °F 30.8 °F 30.2 °F 87% 29.69 in 2.5 mi SE 3.5 mph - N/A   Scattered Clouds
9:13 PM 33.8 °F 30.8 °F 30.2 °F 87% 29.69 in 2.0 mi ESE 3.5 mph - N/A   Clear
9:34 PM 33.8 °F - 30.2 °F 87% 29.69 in 2.0 mi Calm Calm - N/A   Clear
9:53 PM 33.8 °F - 32.0 °F 93% 29.68 in 2.0 mi Calm Calm - N/A   Mostly Cloudy
10:14 PM 33.8 °F - 32.0 °F 93% 29.68 in 3.0 mi Calm Calm - N/A   Overcast
10:34 PM 35.6 °F - 32.0 °F 87% 29.68 in 4.0 mi Calm Calm - N/A   Overcast
10:53 PM 35.6 °F - 32.0 °F 87% 29.68 in 5.0 mi Calm Calm - N/A   Mostly Cloudy
11:13 PM 35.6 °F - 32.0 °F 87% 29.68 in 4.0 mi Calm Calm - N/A   Mostly Cloudy
11:33 PM 35.6 °F - 33.8 °F 93% 29.68 in 5.0 mi Calm Calm - N/A   Overcast
11:54 PM 35.6 °F - 33.8 °F 93% 29.67 in 7.0 mi Calm Calm - N/A   Mostly Cloudy